TimeCST,TemperatureF,Dew PointF,Humidity,Sea Level PressureIn,VisibilityMPH,Wind Direction,Wind SpeedMPH,Gust SpeedMPH,PrecipitationIn,Events,Conditions,WindDirDegrees,DateUTC
12:53 AM,46.0,32.0,58,30.29,10.0,North,6.9,-,N/A,,Overcast,10,2013-11-25 06:53:00
1:53 AM,46.9,33.1,59,30.27,10.0,NNE,5.8,-,N/A,,Overcast,20,2013-11-25 07:53:00
2:53 AM,46.0,32.0,58,30.25,10.0,NNE,8.1,-,N/A,,Overcast,30,2013-11-25 08:53:00
3:53 AM,46.0,33.1,61,30.22,10.0,NNE,10.4,-,N/A,,Overcast,30,2013-11-25 09:53:00
4:53 AM,45.0,34.0,65,30.18,10.0,NNE,10.4,-,0.00,,Overcast,30,2013-11-25 10:53:00
5:53 AM,43.0,36.0,76,30.19,8.0,NNE,11.5,-,0.02,Rain,Light Rain,30,2013-11-25 11:53:00
6:31 AM,42.8,37.4,81,30.21,5.0,North,5.8,-,0.03,Rain,Rain,350,2013-11-25 12:31:00
6:53 AM,41.0,37.9,89,30.20,5.0,North,8.1,-,0.05,Rain,Light Rain,360,2013-11-25 12:53:00
7:00 AM,42.8,37.4,81,30.19,7.0,North,9.2,-,0.00,Rain,Light Rain,10,2013-11-25 13:00:00
7:29 AM,41.0,37.4,87,30.19,2.5,NNE,10.4,-,0.13,Rain,Heavy Rain,30,2013-11-25 13:29:00
7:46 AM,39.2,37.4,93,30.19,3.0,NNE,11.5,19.6,0.20,Rain,Heavy Rain,20,2013-11-25 13:46:00
7:53 AM,39.9,37.0,89,30.18,3.0,NNE,15.0,20.7,0.21,Rain,Heavy Rain,20,2013-11-25 13:53:00
7:56 AM,39.2,37.4,93,30.19,2.5,North,11.5,20.7,0.01,Rain,Heavy Rain,360,2013-11-25 13:56:00
8:04 AM,41.0,37.4,87,30.20,3.0,NNE,10.4,-,0.02,Rain,Rain,20,2013-11-25 14:04:00
8:12 AM,41.0,37.4,87,30.20,1.8,North,10.4,-,0.05,Rain,Heavy Rain,10,2013-11-25 14:12:00
8:53 AM,39.9,37.0,89,30.21,1.8,North,12.7,-,0.26,Rain,Rain,10,2013-11-25 14:53:00
9:06 AM,39.2,37.4,93,30.23,2.0,North,6.9,-,0.08,Rain,Heavy Rain,360,2013-11-25 15:06:00
9:11 AM,39.2,37.4,93,30.22,1.8,NE,9.2,-,0.14,Rain,Heavy Rain,40,2013-11-25 15:11:00
9:19 AM,39.2,37.4,93,30.21,1.2,NE,9.2,-,0.22,Rain,Heavy Rain,40,2013-11-25 15:19:00
9:24 AM,39.2,37.4,93,30.20,2.0,NE,11.5,-,0.24,Rain,Heavy Rain,40,2013-11-25 15:24:00
9:38 AM,39.2,37.4,93,30.19,3.0,NNE,9.2,-,0.27,Rain,Rain,30,2013-11-25 15:38:00
9:43 AM,39.2,37.4,93,30.18,2.5,NE,8.1,-,0.29,Rain,Heavy Rain,50,2013-11-25 15:43:00
9:53 AM,39.9,37.0,89,30.18,2.5,NE,11.5,18.4,0.33,Rain,Heavy Rain,40,2013-11-25 15:53:00
10:00 AM,39.2,37.4,93,30.18,2.5,NNE,11.5,-,0.02,Rain,Heavy Rain,30,2013-11-25 16:00:00
10:10 AM,39.2,37.4,93,30.20,1.8,North,9.2,-,0.07,Rain,Heavy Rain,10,2013-11-25 16:10:00
10:17 AM,39.2,37.4,93,30.20,2.0,North,9.2,18.4,0.10,Rain,Heavy Rain,10,2013-11-25 16:17:00
10:25 AM,41.0,37.4,87,30.19,1.8,NNE,8.1,-,0.14,Rain,Heavy Rain,30,2013-11-25 16:25:00
10:32 AM,41.0,37.4,87,30.19,3.0,NNE,6.9,-,0.14,Rain,Light Rain,20,2013-11-25 16:32:00
10:53 AM,41.0,37.9,89,30.18,4.0,North,8.1,-,0.15,Rain,Light Rain,10,2013-11-25 16:53:00
11:53 AM,42.1,39.0,89,30.15,7.0,North,10.4,-,0.00,Rain,Light Rain,10,2013-11-25 17:53:00
12:53 PM,44.1,39.9,85,30.10,7.0,North,10.4,-,0.00,,Overcast,10,2013-11-25 18:53:00
1:53 PM,44.1,41.0,89,30.06,7.0,NNE,6.9,-,N/A,,Overcast,20,2013-11-25 19:53:00
2:53 PM,45.0,41.0,86,30.04,3.0,NNE,10.4,-,0.00,Rain,Light Rain,30,2013-11-25 20:53:00
3:14 PM,44.6,41.0,87,30.02,2.5,NNE,10.4,-,0.00,Rain,Light Rain,20,2013-11-25 21:14:00
3:24 PM,44.6,41.0,87,30.01,4.0,NNE,11.5,18.4,0.00,Rain,Light Rain,30,2013-11-25 21:24:00
3:53 PM,45.0,41.0,86,30.05,6.0,NNW,10.4,-,0.00,Rain,Light Rain,340,2013-11-25 21:53:00
4:09 PM,44.6,41.0,87,30.05,1.8,North,9.2,-,0.01,Rain,Rain,360,2013-11-25 22:09:00
4:33 PM,44.6,41.0,87,30.06,3.0,NNW,10.4,-,0.06,Rain,Light Rain,340,2013-11-25 22:33:00
4:53 PM,44.1,41.0,89,30.04,4.0,North,10.4,20.7,0.10,Rain,Heavy Rain,360,2013-11-25 22:53:00
5:04 PM,44.6,41.0,87,30.04,5.0,North,11.5,-,0.01,Rain,Light Rain,350,2013-11-25 23:04:00
5:22 PM,44.6,41.0,87,30.01,2.5,NNE,12.7,-,0.12,Rain,Heavy Rain,20,2013-11-25 23:22:00
5:33 PM,44.6,41.0,87,30.07,2.5,Variable,3.5,-,0.19,Rain,Heavy Rain,0,2013-11-25 23:33:00
5:45 PM,44.6,41.0,87,30.05,2.0,North,8.1,-,0.32,Rain,Heavy Rain,360,2013-11-25 23:45:00
5:50 PM,44.6,41.0,87,30.05,4.0,North,6.9,-,0.33,Rain,Rain,10,2013-11-25 23:50:00
5:53 PM,44.1,41.0,89,30.04,6.0,North,8.1,-,0.33,Rain,Light Rain,360,2013-11-25 23:53:00
6:05 PM,44.6,41.0,87,30.05,10.0,NNW,9.2,-,0.00,Rain,Light Rain,330,2013-11-26 00:05:00
6:15 PM,44.6,41.0,87,30.05,4.0,NNW,9.2,-,0.04,Rain,Heavy Rain,340,2013-11-26 00:15:00
6:53 PM,44.1,41.0,89,30.07,1.8,North,9.2,-,0.25,Rain,Heavy Rain,350,2013-11-26 00:53:00
6:59 PM,44.6,41.0,87,30.08,3.0,NNW,8.1,-,0.01,Rain,Rain,330,2013-11-26 00:59:00
7:27 PM,42.8,39.2,87,30.07,5.0,NNW,10.4,-,0.10,Rain,Rain,340,2013-11-26 01:27:00
7:33 PM,42.8,39.2,87,30.07,6.0,North,10.4,-,0.10,Rain,Light Rain,350,2013-11-26 01:33:00
7:53 PM,44.1,39.9,85,30.08,10.0,NNW,9.2,-,0.10,Rain,Light Rain,340,2013-11-26 01:53:00
8:53 PM,44.1,39.9,85,30.06,6.0,North,10.4,-,0.03,Rain,Light Rain,350,2013-11-26 02:53:00
9:53 PM,44.1,39.9,85,30.06,10.0,North,15.0,21.9,0.01,,Overcast,350,2013-11-26 03:53:00
10:53 PM,43.0,39.0,86,29.98,10.0,North,15.0,26.5,0.00,,Overcast,10,2013-11-26 04:53:00
11:53 PM,44.1,39.9,85,30.04,10.0,NNW,8.1,-,N/A,,Overcast,340,2013-11-26 05:53:00